Hourly Data Report for October 28, 2015

All times are specified in Local Standard Time (LST). Add 1 hour to adjust for Daylight Saving Time where and when it is observed.

QIKIQTARJUAQ A
NUNAVUT

67°32'48.000" N
64°01'54.000" W
5.50 m
2400577
YVM

Download Data

Hourly Data (October 2015)
Hourly Data Report for October 28, 2015
Temp Definition
°C
Dew Point Temp Definition
°C
Rel Hum Definition
%
Wind Dir Definition
10's deg

Wind Spd Definition
km/h
Visibility Definition
km
Stn Press Definition
kPa
Hmdx Definition


Wind Chill Definition


Weather Definition


TIME
00:00 Legend Double Dagger -8.9 -12.4 76 15 9 16.1 100.44   -14 LegendNANA
01:00 Legend Double Dagger -10.0 -13.1 78 16 8 16.1 100.46   -14 LegendNANA
02:00 Legend Double Dagger -10.2 -13.9 75 LegendMM 5 16.1 100.49   -13 LegendNANA
03:00 Legend Double Dagger -10.3 -14.4 72 17 5 16.1 100.52   -13 LegendNANA
04:00 Legend Double Dagger -9.8 -15.2 65 19 15 16.1 100.54   -16 LegendNANA
05:00 Legend Double Dagger -9.0 -15.4 60 19 17 16.1 100.56   -16 LegendNANA
06:00 Legend Double Dagger -9.1 -15.2 62 19 22 16.1 100.57   -17 LegendNANA
07:00 Legend Double Dagger -8.9 -15.5 59 19 21 16.1 100.56   -17 LegendNANA
08:00 Legend Double Dagger -9.2 -16.2 57 20 11 16.1 100.55   -15 LegendNANA
09:00 Legend Double Dagger -11.0 -16.6 64 18 11 16.1 100.56   -17 LegendNANA
10:00 Legend Double Dagger -10.9 -16.6 63 16 9 16.1 100.58   -16 LegendNANA
11:00 Legend Double Dagger -7.8 -14.4 59 20 15 16.1 100.58   -14 LegendNANA
12:00 Legend Double Dagger -8.7 -15.1 60 19 15 16.1 100.60   -15 LegendNANA
13:00 Legend Double Dagger -9.0 -15.0 62 19 9 9.7 100.64   -14 Haze
14:00 Legend Double Dagger -7.9 -15.7 54 20 17 16.1 100.66   -15 LegendNANA
15:00 Legend Double Dagger -6.2 -17.7 40 22 9 16.1 100.67   -10 LegendNANA
16:00 Legend Double Dagger -7.2 -15.0 54 28 9 16.1 100.70   -12 LegendNANA
17:00 Legend Double Dagger -4.7 -16.8 39 30 17 16.1 100.71   -11 LegendNANA
18:00 Legend Double Dagger -5.1 -17.4 38 29 17 16.1 100.72   -11 LegendNANA
19:00 Legend Double Dagger -5.2 -17.5 38 29 13 16.1 100.72   -10 LegendNANA
20:00 Legend Double Dagger -8.1 -16.6 51 29 9 16.1 100.73   -13 LegendNANA
21:00 Legend Double Dagger -7.0 -17.7 43 31 9 16.1 100.72   -11 LegendNANA
22:00 Legend Double Dagger -5.5 -18.6 35 29 13 16.1 100.69   -11 LegendNANA
23:00 Legend Double Dagger -8.4 -21.1 36 LegendMM 4 16.1 100.70   -11 LegendNANA

Notes on Data Quality.

Legend

  • E = Estimated
  • M = Missing
  • NA = Not Available
  • ‡ = Partner data that is not subject to review by the National Climate Archives
Date modified: